EW5799 Weather Reports


time (UTC)temp
C
wind
direction
speed
KPH
gust
KPH
rain 1hr
cm
rain 24hr
cm
rain mn
cm
humidity
%
barometer
mb
20260502181506 21 2 11.3 20.9 0.00 4.42 0.15 62 1018.9
20260502163056 19 325 14.5 22.5 0.00 5.69 0.15 70 1019.1
20260502161547 18 20 11.3 27.4 0.00 5.69 0.15 71 1019.1
20260502151534 17 356 14.5 22.5 0.00 5.82 0.15 78 1018.9
20260502123021 13 24 6.4 22.5 0.00 5.82 0.15 91 1017.3
20260502121517 13 345 16.1 16.1 0.00 5.82 0.15 92 1017.2
20260502114512 -17 0.0 0.0 0.00 5.82 0.15 1016.9
20260502113004 -17 0.0 0.0 0.00 5.82 0.15 1016.8
20260502111530 -17 0.0 0.0 0.00 5.82 0.15 1016.6
20260502110026 -17 0.0 0.0 0.00 5.82 0.15 1016.5
20260502104518 -17 0.0 0.0 0.00 5.82 0.15 1016.1
20260502103014 -17 0.0 0.0 0.00 5.82 0.15 1015.9
20260502101509 -17 0.0 0.0 0.00 5.82 0.15 1015.5
20260502071526 13 358 12.9 25.7 0.00 5.82 0.15 93 1014.7
20260502070032 13 21 12.9 29.0 0.00 5.82 0.15 94 1014.5
20260502064526 13 43 12.9 25.7 0.00 7.47 0.15 94 1014.3
20260502063024 13 9 9.7 27.4 0.00 7.47 0.15 95 1014.4
20260502061519 13 5 11.3 32.2 0.00 7.47 0.15 96 1014.3
20260502060018 13 51 17.7 30.6 0.00 7.47 0.15 97 1014.3
20260502054516 13 349 19.3 32.2 0.00 7.49 0.15 97 1014.4
20260502053014 13 342 14.5 27.4 0.00 7.49 0.15 98 1014.7
20260502051522 13 23 12.9 22.5 0.00 7.49 0.15 98 1014.5
20260502050011 13 354 9.7 32.2 0.03 7.49 0.15 98 1014.6
20260502044510 12 343 17.7 35.4 0.03 7.52 0.15 98 1014.7
20260502043002 13 20 16.1 25.7 0.03 7.52 0.15 98 1014.5
20260502041559 13 23 12.9 22.5 0.03 7.52 0.15 98 1014.5
20260502040056 13 353 12.9 22.5 0.03 7.49 0.13 98 1014.0
20260502034555 13 22 11.3 22.5 0.05 7.49 0.13 99 1013.9
20260502033056 13 337 12.9 25.7 0.08 7.49 0.13 98 1013.1
20260502031550 13 19 12.9 25.7 0.10 7.49 0.13 98 1012.9
20260502030054 14 4 9.7 24.1 0.10 7.47 0.10 99 1012.3
20260502024544 14 14 14.5 24.1 0.08 7.52 0.08 98 1012.9
20260502023052 14 360 11.3 19.3 0.13 7.49 0.05 99 1012.7
20260502021541 14 347 11.3 20.9 0.15 7.47 0.03 99 1012.6
20260502020031 14 354 16.1 29.0 0.15 7.44 0.00 99 1012.5
20260502014534 15 11 9.7 20.9 0.25 7.44 5.51 99 1012.2
20260502013023 15 347 11.3 24.1 0.36 7.37 5.44 99 1011.6
20260502011522 15 3 9.7 19.3 0.56 7.32 5.38 99 1011.1
20260502010021 15 15 8.0 19.3 0.58 7.29 5.36 99 1009.7
20260502004520 15 350 11.3 24.1 0.48 7.19 5.23 98 1010.0
20260502003020 15 340 11.3 24.1 0.33 7.01 5.08 99 1010.5
20260502001520 15 357 12.9 24.1 0.08 6.76 4.83 99 1009.6
20260502000014 15 25 14.5 27.4 0.03 6.71 4.78 98 1009.8
20260501234514 15 8 16.1 25.7 0.05 6.71 4.78 98 1009.7
20260501233007 15 18 8.0 24.1 0.03 6.68 4.75 99 1008.5
20260501231510 15 339 14.5 27.4 0.03 6.68 4.75 99 1008.6
20260501230003 16 6 11.3 27.4 0.03 6.68 4.75 99 1009.0
20260501224502 15 352 8.0 24.1 0.03 6.81 4.72 99 1009.3
20260501223111 16 28 8.0 24.1 0.10 6.81 4.72 98 1009.3
20260501221613 16 349 11.3 27.4 0.41 6.81 4.72 99 1009.7
20260501220057 16 334 9.7 17.7 0.53 6.81 4.72 99 1009.8
20260501214557 16 330 8.0 19.3 0.61 6.78 4.70 99 1009.5
20260501213023 16 328 17.7 29.0 0.69 6.68 4.60 98 1007.6
20260501211522 16 8 9.7 22.5 0.91 6.40 4.32 98 1009.1
20260501210020 17 350 8.0 19.3 1.07 6.27 4.19 99 1009.4
20260501204518 17 337 9.7 22.5 2.59 6.15 4.06 98 1008.6
20260501203035 17 2 8.0 17.7 2.57 5.99 3.91 99 1007.3
20260501201516 17 336 12.9 27.4 2.11 5.46 3.38 99 1008.4
20260501200013 17 343 8.0 24.1 1.88 5.18 3.12 98 1007.9
20260501194516 17 127 4.8 22.5 0.23 3.56 1.45 99 1009.0
20260501193010 17 332 9.7 25.7 0.10 3.43 1.35 98 1007.0
20260501191509 17 6 12.9 19.3 0.03 3.35 1.27 98 1009.0
20260501190005 17 8 12.9 24.1 0.00 3.33 1.24 98 1008.0
20260501184513 17 338 11.3 32.2 0.00 3.33 1.24 98 1009.0
20260501183004 17 4 9.7 24.1 0.00 3.33 1.24 98 1008.1